RH
20 52 58 55 50 45 36 37 35 29 27 37 33 32 30 24 20 21 19 18 34 68 81 94 99 98 100 100 100 100 99 96 96 96 93 90 84 78 75 95 100 100 99 100
27 33 28 26 49 48 49 53 56 47 38 40 43 38 30 25 23 20 19 20 36 62 95 97 100 99 99 99 99 99 96 87 84 91 87 83 82 77 73 80 97 100 100 100
35 29 23 24 28 47 56 58 56 56 42 39 38 42 34 26 22 18 18 17 34 56 93 91 97 98 96 98 99 96 93 91 72 89 83 78 79 83 88 89 81 91 99 100
35 26 26 32 32 27 36 37 45 49 55 71 38 58 25 20 19 17 17 17 29 69 88 90 84 92 96 98 98 94 92 91 65 64 82 79 88 84 91 100 100 98 97 98
45 40 30 27 29 26 38 40 44 49 57 58 53 56 43 26 26 21 16 16 17 63 82 92 90 83 92 99 99 97 93 93 87 92 80 76 81 86 85 90 100 100 95 99
56 39 43 46 32 23 22 47 56 58 62 81 62 54 49 35 26 18 15 15 15 27 75 84 83 91 96 98 100 100 98 92 96 96 86 84 78 84 87 89 97 100 100 100
50 59 49 40 49 41 32 39 92 94 90 80 55 55 45 34 27 42 60 62 53 40 65 84 87 85 88 91 95 100 100 99 100 96 83 79 84 85 83 84 97 98 100 100
99 75 55 73 81 74 49 46 79 87 72 62 47 64 45 50 70 72 73 76 76 77 70 78 83 81 81 82 87 91 93 93 94 85 84 61 86 88 81 80 88 84 91 98
89 68 44 44 75 90 62 60 49 66 92 80 53 39 50 67 70 68 70 68 75 77 78 76 79 82 76 81 92 92 95 87 90 92 100 99 95 90 89 84 81 75 75 87
76 92 45 59 58 86 91 38 67 79 85 71 56 46 81 79 81 74 79 75 72 71 76 79 71 82 80 80 87 100 96 95 95 97 100 99 93 91 90 82 77 79 79 81
77 92 58 62 97 71 75 60 75 82 75 70 63 83 97 93 87 88 81 75 76 74 77 80 75 72 84 87 88 95 97 93 93 100 100 100 98 92 89 80 73 72 76 75
85 94 86 81 90 88 80 61 71 82 74 76 94 95 72 76 80 77 81 78 77 75 83 84 74 71 85 86 85 89 87 91 96 98 100 100 96 94 88 80 72 71 70 66
97 83 85 58 90 83 95 93 85 72 71 80 93 96 65 67 75 88 84 82 81 79 86 81 86 82 78 80 81 88 91 92 96 96 97 98 100 96 87 78 71 68 64 59
92 96 93 93 96 87 94 88 80 72 87 93 92 88 78 79 89 94 88 82 83 82 82 88 91 77 79 81 84 86 91 95 98 93 99 100 99 97 91 77 69 64 59 56
97 96 94 96 73 74 91 92 78 88 85 88 94 90 88 93 95 99 92 81 83 86 85 88 92 93 87 87 88 90 91 100 100 100 100 99 98 100 90 77 70 62 57 53
96 95 98 97 93 68 76 84 74 81 91 86 76 77 79 89 96 97 89 85 86 88 88 88 89 91 95 91 89 89 96 97 96 96 100 100 100 100 88 78 70 61 56 52
97 98 96 95 81 55 70 96 96 90 93 95 93 96 90 85 96 96 94 88 91 89 90 91 94 95 96 99 98 96 94 95 100 99 100 100 100 100 91 80 72 62 56 53
96 95 92 92 80 88 96 97 98 97 94 94 92 95 97 96 98 98 94 97 96 93 92 92 94 95 97 100 99 99 98 100 99 99 100 100 100 100 97 86 74 64 62 53
70 85 86 89 92 92 71 92 96 96 94 96 96 95 96 88 69 92 91 97 99 96 94 94 96 96 98 99 100 100 100 100 98 98 99 100 100 100 100 97 90 85 67 65
60 60 82 90 90 96 95 91 68 94 80 91 97 96 96 88 87 93 95 99 97 97 93 95 93 95 98 99 98 98 99 100 98 100 99 100 100 99 99 96 93 77 65 62
81 86 88 79 93 94 96 71 41 73 92 96 96 97 96 96 98 98 99 98 99 94 96 93 91 96 98 99 97 97 98 99 98 96 100 100 100 100 100 98 88 78 73 67
96 96 96 85 87 93 78 71 83 92 90 85 88 92 96 97 95 95 94 97 97 97 96 97 90 95 100 99 99 98 98 100 100 98 100 100 100 100 100 96 89 80 76 76
92 89 91 93 95 89 97 97 89 92 88 81 81 79 83 90 93 92 92 95 91 97 97 99 99 92 98 99 100 98 100 100 100 100 100 100 100 100 100 99 90 88 83 84
78 74 94 87 84 95 92 82 81 82 81 72 73 76 75 81 80 76 80 82 89 90 89 94 96 96 96 99 100 100 100 100 100 100 100 100 99 99 100 100 97 95 96 92
93 79 82 88 80 76 73 80 78 79 78 73 70 74 78 78 81 77 72 68 73 86 85 76 78 92 97 99 99 100 100 100 100 100 100 100 100 100 100 99 100 99 94 91
88 94 94 94 79 89 80 72 69 76 83 79 79 78 78 79 81 80 75 73 74 80 84 78 77 82 91 94 98 100 100 100 100 99 100 100 100 100 99 100 100 100 99 99
Wind_Speed
4 2 5 8 7 6 3 3 4 2 3 7 5 9 13 11 15 7 9 7 8 9 12 16 25 36 36 36 37 39 38 35 33 30 30 29 33 34 35 36 33 31 32 34
5 5 2 6 7 10 8 13 12 2 4 4 8 17 12 8 9 8 9 9 9 8 6 10 18 26 34 39 43 42 40 41 33 28 28 23 28 34 35 38 36 32 32 33
4 5 11 9 7 7 11 14 5 8 3 5 5 15 15 7 7 10 8 10 7 10 11 12 16 23 33 38 42 44 42 38 41 26 23 21 24 26 30 33 37 35 34 34
9 7 7 3 5 7 12 6 10 8 5 4 6 6 6 4 7 8 8 6 8 10 9 13 19 24 29 35 40 41 38 40 46 34 30 31 28 27 27 26 30 34 37 37
7 9 14 14 15 5 4 5 12 12 8 4 6 4 5 6 8 8 7 9 9 10 9 14 17 31 34 31 35 42 44 43 44 44 46 42 31 28 30 32 33 35 37 37
14 9 8 15 17 22 12 6 2 5 6 10 13 9 4 5 5 4 6 8 9 10 10 12 23 31 32 30 28 34 40 43 39 39 38 36 40 32 33 35 37 34 33 36
19 5 4 11 17 17 18 11 4 7 7 5 8 8 16 10 6 4 6 9 9 9 8 10 13 17 26 29 29 31 35 38 40 42 47 43 36 39 41 41 39 39 34 32
3 9 3 7 5 4 18 18 8 8 5 6 9 7 6 2 5 5 6 6 7 10 8 11 15 21 28 33 38 36 37 34 40 40 40 40 45 42 43 47 43 45 45 39
7 9 10 17 16 13 12 15 17 3 2 3 4 4 3 11 12 14 13 14 13 12 13 13 14 22 29 32 34 38 39 40 42 44 42 39 35 41 41 46 48 47 46 45
5 13 8 2 12 12 6 12 15 4 4 3 4 1 1 11 14 16 17 17 19 19 19 18 14 22 27 34 37 36 38 40 37 37 39 44 47 43 41 48 49 47 48 45
4 4 11 10 4 4 8 11 6 5 3 4 1 3 8 11 13 16 17 18 20 23 22 22 14 25 29 32 34 38 35 34 32 36 37 39 42 41 41 46 51 50 49 45
1 4 7 11 14 4 3 5 11 4 4 2 1 3 8 13 14 16 18 20 21 22 23 17 13 19 23 28 31 33 36 34 33 33 31 35 39 41 40 44 50 50 47 44
8 4 7 6 6 13 8 4 3 2 2 2 3 0 13 17 16 18 19 20 21 20 22 5 7 11 18 25 30 32 35 35 32 31 35 34 36 39 42 46 51 50 45 43
7 4 9 11 9 10 9 29 23 9 4 3 6 12 18 21 20 17 20 21 19 17 20 19 2 7 12 19 25 30 30 32 35 36 36 37 41 44 44 45 50 48 44 43
3 3 5 12 17 31 24 27 27 26 15 7 9 13 18 18 16 11 16 21 20 20 20 18 16 4 9 17 20 23 26 29 34 34 36 41 44 44 39 43 48 45 44 44
2 2 1 5 14 14 26 23 24 27 24 13 10 10 19 18 11 9 18 22 21 22 20 19 18 16 8 11 19 25 23 25 28 28 31 30 36 38 38 41 44 44 42 43
3 3 2 3 9 7 22 20 12 18 17 16 15 16 19 20 15 16 21 24 22 22 19 18 17 15 19 17 3 16 26 28 27 30 28 29 32 35 35 38 38 41 42 43
2 2 3 2 4 9 7 13 6 8 19 20 19 19 16 17 12 13 25 25 21 19 18 16 14 20 23 21 16 10 17 24 25 28 28 29 32 34 33 36 40 39 41 44
10 2 4 4 6 4 16 18 12 6 16 22 18 20 21 21 9 10 26 21 13 15 15 19 22 21 22 26 26 5 18 18 27 28 27 29 32 33 32 32 40 40 37 38
14 16 5 4 6 10 15 22 22 3 11 24 21 21 21 21 17 13 25 20 19 23 24 24 26 25 30 32 26 19 15 6 27 26 30 33 34 36 39 42 33 35 40 39
7 5 11 9 6 5 12 23 11 13 8 19 18 17 19 17 11 13 18 18 22 23 28 29 30 30 29 29 25 23 19 20 18 14 23 30 36 37 37 37 32 35 34 35
7 4 5 5 5 7 16 9 11 3 6 10 13 14 13 12 13 13 19 19 25 30 36 35 32 30 32 30 33 30 26 28 25 16 21 30 31 32 32 33 34 34 34 31
7 9 5 6 4 3 7 6 6 3 6 11 12 13 13 14 14 16 18 21 26 34 33 33 31 32 35 38 38 31 33 32 30 9 24 26 25 28 31 32 30 28 29 25
8 6 3 4 6 4 5 5 6 6 8 10 11 13 14 14 16 17 15 17 25 30 33 37 39 38 37 40 38 37 41 41 32 33 30 10 24 23 26 26 30 26 25 23
2 3 3 3 5 4 5 5 5 6 8 9 16 14 14 13 14 15 15 21 23 26 31 34 32 33 35 38 40 41 42 40 33 38 32 29 5 12 17 25 25 26 26 29
2 1 2 2 4 3 5 5 4 5 6 8 8 13 18 18 14 21 19 24 27 28 32 34 34 33 35 37 40 43 41 37 35 32 31 34 27 12 6 6 14 11 12 19
Wind_Direction
321 310 222 215 209 185 173 204 184 200 299 349 279 285 289 288 287 272 268 251 238 244 240 202 198 183 184 184 183 186 190 199 197 197 199 198 197 201 202 201 196 196 189 188
350 266 21 341 244 228 212 238 245 262 233 218 278 277 273 260 264 244 237 253 225 242 198 189 187 188 183 181 186 187 190 194 194 203 202 201 202 204 208 207 206 204 199 193
225 271 309 288 277 248 244 241 221 234 220 266 318 287 278 254 228 256 231 231 209 220 203 201 192 193 194 189 187 185 187 186 185 200 206 200 204 208 205 210 212 213 206 196
276 245 226 255 228 219 255 228 235 231 168 238 162 282 262 277 271 252 267 241 237 222 209 205 202 195 200 198 189 186 184 186 189 174 209 203 198 203 204 206 205 209 210 201
251 319 290 260 242 226 252 238 214 218 219 207 244 294 266 206 255 265 269 264 250 235 214 205 203 204 206 200 193 184 184 188 190 190 193 196 204 206 205 207 206 205 208 206
257 260 245 248 251 233 229 267 257 171 197 232 225 203 215 213 226 230 231 240 248 241 220 212 209 205 204 199 197 185 185 187 193 189 188 193 199 202 198 204 207 201 199 199
313 271 242 230 236 254 246 195 233 203 198 214 182 193 249 285 308 17 333 328 318 307 257 217 204 199 197 193 192 190 178 185 192 193 198 197 207 203 203 203 197 198 195 195
287 319 222 160 190 267 234 201 197 182 166 187 182 201 245 40 93 40 343 302 298 304 295 250 216 200 192 194 192 191 187 188 195 202 208 219 202 205 206 204 198 202 203 200
300 270 277 259 278 205 217 230 204 131 98 127 187 222 58 17 7 2 348 333 325 315 304 282 238 210 196 194 189 185 185 192 195 195 197 196 198 199 199 197 201 203 208 208
271 288 296 250 304 215 221 190 198 250 158 174 226 202 82 13 353 345 340 331 323 314 303 283 247 216 202 196 189 185 183 184 194 201 198 196 199 199 198 194 200 202 206 207
274 242 285 306 9 130 193 189 191 174 201 160 179 136 29 13 350 341 332 327 319 307 295 275 241 217 201 198 190 187 185 187 184 191 196 199 194 194 198 199 202 206 206 207
309 287 288 302 305 336 6 160 208 131 193 109 69 127 37 19 356 353 337 327 316 301 299 249 213 209 191 200 199 194 191 188 190 190 191 198 193 196 201 201 204 206 206 205
351 316 317 350 77 38 46 348 274 126 71 109 151 172 27 2 347 358 340 328 314 319 344 268 185 195 193 198 200 198 190 190 187 187 196 197 191 193 202 205 205 207 205 204
355 327 42 68 49 79 55 50 48 47 43 49 40 322 358 349 344 343 335 332 323 341 1 360 111 206 192 201 201 199 192 181 179 191 198 194 197 201 203 205 205 207 205 204
41 57 146 110 59 61 56 45 42 44 27 38 347 336 355 336 324 316 338 332 344 353 1 352 353 245 177 190 193 191 185 177 177 182 192 190 194 199 199 203 205 204 204 205
302 292 296 12 360 37 49 34 39 34 25 17 360 357 344 327 330 5 352 345 353 352 347 347 349 351 4 186 186 188 187 189 186 188 200 191 186 189 192 199 201 200 202 203
309 333 321 341 343 338 33 5 31 34 24 11 13 330 335 342 354 18 360 353 353 347 339 344 348 350 349 353 253 195 185 188 188 195 196 190 183 189 194 197 197 197 200 203
281 333 42 314 350 52 323 2 354 42 15 6 358 348 344 344 330 9 5 352 341 337 342 342 343 355 358 351 348 233 204 190 192 195 195 186 184 188 188 193 197 196 199 203
29 71 50 77 49 161 15 351 336 341 19 359 356 353 357 353 11 17 358 341 334 341 345 347 358 5 3 356 353 305 196 198 202 204 195 194 188 184 184 194 196 201 199 199
18 40 75 11 74 31 343 340 321 246 10 345 352 357 1 3 28 356 331 340 349 355 360 4 8 16 19 1 7 27 29 317 220 197 195 192 188 188 192 199 193 195 200 201
354 357 38 35 77 75 337 346 343 56 322 329 345 350 2 21 12 323 333 348 355 10 8 8 19 18 13 7 13 19 12 0 327 289 200 190 188 190 190 190 190 194 194 201
8 8 12 16 60 37 346 353 48 259 300 342 347 352 352 354 354 357 356 360 5 12 9 13 18 14 14 7 19 15 5 348 328 260 219 184 184 180 180 181 187 191 193 198
46 50 58 50 90 272 314 8 347 304 318 353 360 4 3 1 8 8 1 360 4 14 9 11 17 15 15 14 15 6 358 1 359 233 186 177 180 173 179 178 176 175 185 185
18 34 60 73 350 326 330 349 359 346 359 351 4 8 10 11 11 11 9 3 11 13 14 9 11 12 11 12 12 9 8 17 14 32 28 175 179 184 186 178 178 177 182 183
236 354 14 53 8 340 357 3 343 357 353 360 5 13 13 6 9 13 13 14 14 15 17 17 13 11 9 9 11 12 13 17 18 30 20 23 102 176 183 179 181 185 203 199
339 325 83 213 267 198 268 315 357 16 6 356 357 1 9 16 11 9 18 17 15 13 18 14 10 15 13 12 13 13 15 19 28 29 23 20 25 50 98 110 135 175 215 211